Time,TemperatureF,DewpointF,PressureIn,WindDirection,WindDirectionDegrees,WindSpeedMPH,WindSpeedGustMPH,Humidity,HourlyPrecipIn,Conditions,Clouds,dailyrainin,SoftwareType,DateUTC
2013-11-23 00:04:00,24.0,8.8,28.23,North,3,6.7,-999.0,51,0.00,,,-99.99,,2013-11-23 09:04:00,
2013-11-23 00:09:00,24.1,8.2,28.23,North,352,6.2,-999.0,50,0.00,,,-99.99,,2013-11-23 09:09:00,
2013-11-23 00:14:00,23.6,9.5,28.23,NW,310,8.0,-999.0,54,0.00,,,-99.99,,2013-11-23 09:14:00,
2013-11-23 00:19:00,22.9,10.5,28.22,NW,325,6.1,-999.0,58,0.00,,,-99.99,,2013-11-23 09:19:00,
2013-11-23 00:24:00,23.2,10.9,28.23,NNW,327,6.4,-999.0,58,0.00,,,-99.99,,2013-11-23 09:24:00,
2013-11-23 00:29:00,23.0,10.1,28.22,NNW,328,9.0,-999.0,57,0.00,,,-99.99,,2013-11-23 09:29:00,
2013-11-23 00:34:00,23.5,9.5,28.23,NW,326,9.9,-999.0,54,0.00,,,-99.99,,2013-11-23 09:34:00,
2013-11-23 00:39:00,23.7,9.8,28.23,NNW,341,12.2,-999.0,54,0.00,,,-99.99,,2013-11-23 09:39:00,
2013-11-23 00:44:00,23.3,9.8,28.23,NNW,330,12.3,-999.0,55,0.00,,,-99.99,,2013-11-23 09:44:00,
2013-11-23 00:49:00,23.4,9.7,28.22,NW,325,11.3,-999.0,55,0.00,,,-99.99,,2013-11-23 09:49:00,
2013-11-23 00:54:00,23.6,9.6,28.23,NNW,333,10.1,-999.0,54,0.00,,,-99.99,,2013-11-23 09:54:00,
2013-11-23 00:59:00,23.7,9.3,28.24,NW,324,8.1,-999.0,53,0.00,,,-99.99,,2013-11-23 09:59:00,
2013-11-23 01:04:00,23.6,9.7,28.24,NNW,335,9.2,-999.0,54,0.00,,,-99.99,,2013-11-23 10:04:00,
2013-11-23 01:09:00,23.1,10.1,28.24,NW,323,9.6,-999.0,56,0.00,,,-99.99,,2013-11-23 10:09:00,
2013-11-23 01:14:00,22.9,11.4,28.23,NNW,331,12.9,-999.0,60,0.00,,,-99.99,,2013-11-23 10:14:00,
2013-11-23 01:19:00,23.0,12.6,28.23,NNW,330,12.8,-999.0,63,0.00,,,-99.99,,2013-11-23 10:19:00,
2013-11-23 01:24:00,22.8,12.1,28.23,NW,325,13.3,-999.0,63,0.00,,,-99.99,,2013-11-23 10:24:00,
2013-11-23 01:29:00,23.0,12.2,28.23,NW,326,16.7,-999.0,62,0.00,,,-99.99,,2013-11-23 10:29:00,
2013-11-23 01:34:00,23.1,12.2,28.24,NW,322,13.0,-999.0,62,0.00,,,-99.99,,2013-11-23 10:34:00,
2013-11-23 01:39:00,23.0,12.7,28.24,NNW,330,12.9,-999.0,63,0.00,,,-99.99,,2013-11-23 10:39:00,
2013-11-23 01:44:00,23.2,12.9,28.24,NW,313,14.2,-999.0,64,0.00,,,-99.99,,2013-11-23 10:44:00,
2013-11-23 01:49:00,23.1,13.3,28.24,NW,318,12.0,-999.0,65,0.00,,,-99.99,,2013-11-23 10:49:00,
2013-11-23 01:54:00,23.0,12.7,28.24,NW,317,13.8,-999.0,64,0.00,,,-99.99,,2013-11-23 10:54:00,
2013-11-23 01:59:00,23.0,12.4,28.25,NNW,327,10.6,-999.0,63,0.00,,,-99.99,,2013-11-23 10:59:00,
2013-11-23 02:04:00,23.0,12.1,28.24,NW,326,12.4,-999.0,62,0.00,,,-99.99,,2013-11-23 11:04:00,
2013-11-23 02:09:00,22.9,11.6,28.24,NW,325,13.6,-999.0,61,0.00,,,-99.99,,2013-11-23 11:09:00,
2013-11-23 02:14:00,23.0,12.1,28.24,NW,324,12.8,-999.0,62,0.00,,,-99.99,,2013-11-23 11:14:00,
2013-11-23 02:19:00,22.7,11.8,28.24,NW,317,11.4,-999.0,62,0.00,,,-99.99,,2013-11-23 11:19:00,
2013-11-23 02:24:00,23.2,12.3,28.25,NNW,330,12.3,-999.0,62,0.00,,,-99.99,,2013-11-23 11:24:00,
2013-11-23 02:29:00,23.0,12.2,28.25,NNW,329,14.2,-999.0,62,0.00,,,-99.99,,2013-11-23 11:29:00,
2013-11-23 02:34:00,22.8,12.2,28.25,NNW,333,18.2,-999.0,63,0.00,,,-99.99,,2013-11-23 11:34:00,
2013-11-23 02:39:00,23.5,12.2,28.24,NNW,339,15.8,-999.0,61,0.00,,,-99.99,,2013-11-23 11:39:00,
2013-11-23 02:44:00,23.5,12.3,28.24,NNW,339,16.0,-999.0,61,0.00,,,-99.99,,2013-11-23 11:44:00,
2013-11-23 02:49:00,23.8,12.2,28.24,NW,323,15.2,-999.0,60,0.00,,,-99.99,,2013-11-23 11:49:00,
2013-11-23 02:54:00,23.6,12.5,28.26,NNW,339,17.9,-999.0,61,0.00,,,-99.99,,2013-11-23 11:54:00,
2013-11-23 02:59:00,23.6,12.6,28.25,NNW,339,15.1,-999.0,62,0.00,,,-99.99,,2013-11-23 11:59:00,
2013-11-23 03:04:00,23.6,12.5,28.24,NNW,347,15.5,-999.0,62,0.00,,,-99.99,,2013-11-23 12:04:00,
2013-11-23 03:09:00,23.6,12.4,28.24,NNW,344,16.2,-999.0,61,0.00,,,-99.99,,2013-11-23 12:09:00,
2013-11-23 03:14:00,24.3,12.2,28.25,North,353,17.7,-999.0,59,0.00,,,-99.99,,2013-11-23 12:14:00,
2013-11-23 03:19:00,24.5,12.2,28.26,NNW,343,15.8,-999.0,58,0.00,,,-99.99,,2013-11-23 12:19:00,
2013-11-23 03:24:00,24.4,12.3,28.26,NNW,342,15.5,-999.0,59,0.00,,,-99.99,,2013-11-23 12:24:00,
2013-11-23 03:29:00,24.7,13.1,28.27,NNW,332,18.3,-999.0,60,0.00,,,-99.99,,2013-11-23 12:29:00,
2013-11-23 03:34:00,25.0,12.9,28.26,NNW,335,14.5,-999.0,59,0.00,,,-99.99,,2013-11-23 12:34:00,
2013-11-23 03:39:00,24.6,13.6,28.26,NNW,327,13.9,-999.0,62,0.00,,,-99.99,,2013-11-23 12:39:00,
2013-11-23 03:44:00,24.6,14.1,28.27,NW,321,10.1,-999.0,64,0.00,,,-99.99,,2013-11-23 12:44:00,
2013-11-23 03:49:00,23.8,14.8,28.27,ENE,75,0.8,-999.0,68,0.00,,,-99.99,,2013-11-23 12:49:00,
2013-11-23 03:54:00,23.8,15.3,28.26,WNW,293,13.4,-999.0,69,0.00,,,-99.99,,2013-11-23 12:54:00,
2013-11-23 03:59:00,23.9,15.1,28.28,WNW,294,12.7,-999.0,68,0.00,,,-99.99,,2013-11-23 12:59:00,
2013-11-23 04:04:00,24.3,15.1,28.27,NW,317,10.4,-999.0,67,0.00,,,-99.99,,2013-11-23 13:04:00,
2013-11-23 04:09:00,24.0,15.1,28.27,West,266,3.8,-999.0,68,0.00,,,-99.99,,2013-11-23 13:09:00,
2013-11-23 04:14:00,24.2,15.0,28.27,NNW,334,8.8,-999.0,67,0.00,,,-99.99,,2013-11-23 13:14:00,
2013-11-23 04:19:00,24.0,15.1,28.29,NNW,333,11.7,-999.0,68,0.00,,,-99.99,,2013-11-23 13:19:00,
2013-11-23 04:24:00,23.9,15.0,28.28,NNW,327,11.8,-999.0,68,0.00,,,-99.99,,2013-11-23 13:24:00,
2013-11-23 04:29:00,24.0,15.1,28.28,NW,310,6.4,-999.0,68,0.00,,,-99.99,,2013-11-23 13:29:00,
2013-11-23 04:34:00,23.5,15.3,28.28,WNW,302,7.2,-999.0,70,0.00,,,-99.99,,2013-11-23 13:34:00,
2013-11-23 04:39:00,23.8,15.4,28.29,NNW,331,12.2,-999.0,70,0.00,,,-99.99,,2013-11-23 13:39:00,
2013-11-23 04:44:00,24.0,15.8,28.29,NW,322,15.7,-999.0,70,0.00,,,-99.99,,2013-11-23 13:44:00,
2013-11-23 04:49:00,23.4,15.9,28.28,NNW,331,13.5,-999.0,72,0.00,,,-99.99,,2013-11-23 13:49:00,
2013-11-23 04:54:00,23.8,16.8,28.29,NNW,335,15.6,-999.0,74,0.00,,,-99.99,,2013-11-23 13:54:00,
2013-11-23 04:59:00,23.7,16.8,28.28,NW,325,13.1,-999.0,74,0.00,,,-99.99,,2013-11-23 13:59:00,
2013-11-23 05:04:00,23.9,17.0,28.28,NW,325,15.1,-999.0,74,0.00,,,-99.99,,2013-11-23 14:04:00,
2013-11-23 05:09:00,23.8,17.0,28.27,NNW,340,13.7,-999.0,74,0.00,,,-99.99,,2013-11-23 14:09:00,
2013-11-23 05:14:00,23.6,17.3,28.29,NNW,330,12.3,-999.0,76,0.00,,,-99.99,,2013-11-23 14:14:00,
2013-11-23 05:19:00,24.0,17.3,28.29,NNW,343,14.1,-999.0,75,0.00,,,-99.99,,2013-11-23 14:19:00,
2013-11-23 05:24:00,24.1,17.2,28.29,NNW,337,16.4,-999.0,74,0.00,,,-99.99,,2013-11-23 14:24:00,
2013-11-23 05:29:00,24.4,17.5,28.28,NNW,337,13.6,-999.0,74,0.00,,,-99.99,,2013-11-23 14:29:00,
2013-11-23 05:34:00,24.0,18.3,28.28,NW,322,12.6,-999.0,78,0.00,,,-99.99,,2013-11-23 14:34:00,
2013-11-23 05:39:00,24.0,18.2,28.29,NNW,340,13.1,-999.0,78,0.00,,,-99.99,,2013-11-23 14:39:00,
2013-11-23 05:44:00,24.0,17.8,28.30,NNW,338,12.9,-999.0,76,0.00,,,-99.99,,2013-11-23 14:44:00,
2013-11-23 05:49:00,24.2,17.6,28.30,North,350,13.7,-999.0,75,0.00,,,-99.99,,2013-11-23 14:49:00,
2013-11-23 05:54:00,24.2,17.5,28.30,NNW,331,15.1,-999.0,75,0.00,,,-99.99,,2013-11-23 14:54:00,
2013-11-23 05:59:00,24.6,18.1,28.29,North,351,16.5,-999.0,76,0.00,,,-99.99,,2013-11-23 14:59:00,
2013-11-23 06:04:00,24.7,17.7,28.30,NNW,346,17.5,-999.0,74,0.00,,,-99.99,,2013-11-23 15:04:00,
2013-11-23 06:09:00,24.7,17.6,28.30,NNW,337,18.0,-999.0,74,0.00,,,-99.99,,2013-11-23 15:09:00,
2013-11-23 06:14:00,24.8,18.1,28.31,NNW,343,16.9,-999.0,75,0.00,,,-99.99,,2013-11-23 15:14:00,
2013-11-23 06:19:00,24.7,19.2,28.31,NNW,337,13.9,-999.0,79,0.00,,,-99.99,,2013-11-23 15:19:00,
2013-11-23 06:24:00,24.7,19.4,28.30,North,349,14.9,-999.0,79,0.00,,,-99.99,,2013-11-23 15:24:00,
2013-11-23 06:29:00,24.4,18.7,28.30,NNW,346,16.6,-999.0,78,0.00,,,-99.99,,2013-11-23 15:29:00,
2013-11-23 06:34:00,24.7,19.4,28.31,North,0,17.2,-999.0,80,0.00,,,-99.99,,2013-11-23 15:34:00,
2013-11-23 06:39:00,24.9,19.4,28.32,NNW,348,19.2,-999.0,79,0.00,,,-99.99,,2013-11-23 15:39:00,
2013-11-23 06:44:00,25.3,19.1,28.32,NNW,347,18.7,-999.0,77,0.00,,,-99.99,,2013-11-23 15:44:00,
2013-11-23 06:49:00,25.0,19.1,28.32,NNW,344,15.2,-999.0,77,0.00,,,-99.99,,2013-11-23 15:49:00,
2013-11-23 06:54:00,24.9,19.5,28.32,NNW,344,13.2,-999.0,79,0.00,,,-99.99,,2013-11-23 15:54:00,
2013-11-23 06:59:00,24.9,20.1,28.32,NNW,347,12.7,-999.0,81,0.00,,,-99.99,,2013-11-23 15:59:00,
2013-11-23 07:04:00,24.9,18.5,28.35,North,353,15.4,-999.0,76,0.00,,,-99.99,,2013-11-23 16:04:00,
2013-11-23 07:09:00,25.6,17.5,28.34,North,0,15.3,-999.0,70,0.00,,,-99.99,,2013-11-23 16:09:00,
2013-11-23 07:14:00,26.2,17.0,28.34,NNW,348,14.3,-999.0,67,0.00,,,-99.99,,2013-11-23 16:14:00,
2013-11-23 07:19:00,26.2,16.7,28.33,North,0,14.7,-999.0,66,0.00,,,-99.99,,2013-11-23 16:19:00,
2013-11-23 07:24:00,25.8,17.0,28.33,NNW,342,16.9,-999.0,68,0.00,,,-99.99,,2013-11-23 16:24:00,
2013-11-23 07:29:00,25.9,17.5,28.33,NNW,345,16.6,-999.0,70,0.00,,,-99.99,,2013-11-23 16:29:00,
2013-11-23 07:34:00,26.1,18.1,28.35,NNW,333,14.2,-999.0,71,0.00,,,-99.99,,2013-11-23 16:34:00,
2013-11-23 07:39:00,26.4,17.9,28.35,North,350,16.0,-999.0,70,0.00,,,-99.99,,2013-11-23 16:39:00,
2013-11-23 07:44:00,26.2,18.7,28.35,NNW,345,12.1,-999.0,72,0.00,,,-99.99,,2013-11-23 16:44:00,
2013-11-23 07:49:00,25.7,18.4,28.34,NNW,346,13.6,-999.0,73,0.00,,,-99.99,,2013-11-23 16:49:00,
2013-11-23 07:54:00,25.8,18.4,28.35,NNW,341,10.1,-999.0,73,0.00,,,-99.99,,2013-11-23 16:54:00,
2013-11-23 07:59:00,25.8,17.9,28.36,NNW,339,12.3,-999.0,71,0.00,,,-99.99,,2013-11-23 16:59:00,
2013-11-23 08:04:00,26.3,18.2,28.37,NW,326,12.2,-999.0,70,0.00,,,-99.99,,2013-11-23 17:04:00,
2013-11-23 08:09:00,26.1,17.6,28.36,North,349,12.1,-999.0,69,0.00,,,-99.99,,2013-11-23 17:09:00,
2013-11-23 08:14:00,26.1,18.7,28.37,NNW,345,11.4,-999.0,73,0.00,,,-99.99,,2013-11-23 17:14:00,
2013-11-23 08:19:00,25.8,18.8,28.37,NW,325,14.3,-999.0,74,0.00,,,-99.99,,2013-11-23 17:19:00,
2013-11-23 08:24:00,25.9,19.7,28.37,NNW,343,14.6,-999.0,77,0.00,,,-99.99,,2013-11-23 17:24:00,
2013-11-23 08:29:00,25.6,19.7,28.37,NW,324,16.1,-999.0,77,0.00,,,-99.99,,2013-11-23 17:29:00,
2013-11-23 08:34:00,25.6,20.2,28.37,NNW,335,13.7,-999.0,79,0.00,,,-99.99,,2013-11-23 17:34:00,
2013-11-23 08:39:00,25.8,19.5,28.38,NNW,328,16.8,-999.0,76,0.00,,,-99.99,,2013-11-23 17:39:00,
2013-11-23 08:44:00,25.9,19.4,28.38,NNW,330,15.4,-999.0,76,0.00,,,-99.99,,2013-11-23 17:44:00,
2013-11-23 08:49:00,25.7,19.7,28.38,NNW,329,16.8,-999.0,77,0.00,,,-99.99,,2013-11-23 17:49:00,
2013-11-23 08:54:00,25.6,19.4,28.38,NW,325,17.4,-999.0,76,0.00,,,-99.99,,2013-11-23 17:54:00,
2013-11-23 08:59:00,26.2,19.1,28.39,NNW,341,19.8,-999.0,73,0.00,,,-99.99,,2013-11-23 17:59:00,
2013-11-23 09:04:00,26.9,19.2,28.39,NNW,333,18.3,-999.0,72,0.00,,,-99.99,,2013-11-23 18:04:00,
2013-11-23 09:09:00,26.9,19.4,28.40,NNW,333,17.8,-999.0,72,0.00,,,-99.99,,2013-11-23 18:09:00,
2013-11-23 09:14:00,26.8,19.1,28.39,NNW,340,14.9,-999.0,72,0.00,,,-99.99,,2013-11-23 18:14:00,
2013-11-23 09:19:00,26.8,18.9,28.39,NNW,333,14.6,-999.0,71,0.00,,,-99.99,,2013-11-23 18:19:00,
2013-11-23 09:24:00,26.5,18.9,28.40,NNW,331,11.0,-999.0,72,0.00,,,-99.99,,2013-11-23 18:24:00,
2013-11-23 09:29:00,26.4,18.9,28.41,NNW,332,10.8,-999.0,72,0.00,,,-99.99,,2013-11-23 18:29:00,
2013-11-23 09:34:00,26.6,19.2,28.41,NNW,334,13.7,-999.0,73,0.00,,,-99.99,,2013-11-23 18:34:00,
2013-11-23 09:39:00,26.7,19.4,28.42,NNW,335,11.8,-999.0,73,0.00,,,-99.99,,2013-11-23 18:39:00,
2013-11-23 09:44:00,26.7,19.2,28.41,NNW,332,10.5,-999.0,72,0.00,,,-99.99,,2013-11-23 18:44:00,
2013-11-23 09:49:00,26.8,19.5,28.42,NNW,335,12.3,-999.0,73,0.00,,,-99.99,,2013-11-23 18:49:00,
2013-11-23 09:54:00,27.6,19.4,28.42,NNW,339,11.7,-999.0,70,0.00,,,-99.99,,2013-11-23 18:54:00,
2013-11-23 09:59:00,27.7,19.6,28.43,NNW,329,9.6,-999.0,71,0.00,,,-99.99,,2013-11-23 18:59:00,
2013-11-23 10:04:00,28.1,19.7,28.42,NNW,335,11.7,-999.0,70,0.00,,,-99.99,,2013-11-23 19:04:00,
2013-11-23 10:09:00,28.5,19.3,28.43,NNW,341,13.3,-999.0,67,0.00,,,-99.99,,2013-11-23 19:09:00,
2013-11-23 10:14:00,28.7,19.6,28.44,NW,322,12.7,-999.0,68,0.00,,,-99.99,,2013-11-23 19:14:00,
2013-11-23 10:19:00,28.5,19.7,28.43,NW,321,10.6,-999.0,69,0.00,,,-99.99,,2013-11-23 19:19:00,
2013-11-23 10:24:00,28.9,19.6,28.44,NNW,338,12.4,-999.0,67,0.00,,,-99.99,,2013-11-23 19:24:00,
2013-11-23 10:29:00,29.4,20.3,28.44,NW,320,9.2,-999.0,68,0.00,,,-99.99,,2013-11-23 19:29:00,
2013-11-23 10:34:00,29.5,20.3,28.44,NW,324,11.3,-999.0,68,0.00,,,-99.99,,2013-11-23 19:34:00,
2013-11-23 10:39:00,29.6,19.9,28.43,NNW,338,13.1,-999.0,66,0.00,,,-99.99,,2013-11-23 19:39:00,
2013-11-23 10:44:00,29.6,20.0,28.44,NW,310,9.6,-999.0,66,0.00,,,-99.99,,2013-11-23 19:44:00,
2013-11-23 10:49:00,29.6,20.0,28.44,NW,324,11.9,-999.0,66,0.00,,,-99.99,,2013-11-23 19:49:00,
2013-11-23 10:54:00,29.5,20.0,28.45,NNW,329,12.7,-999.0,67,0.00,,,-99.99,,2013-11-23 19:54:00,
2013-11-23 10:59:00,30.0,20.9,28.46,WNW,299,12.4,-999.0,68,0.00,,,-99.99,,2013-11-23 19:59:00,
2013-11-23 11:04:00,29.9,20.7,28.45,NW,319,11.5,-999.0,68,0.00,,,-99.99,,2013-11-23 20:04:00,
2013-11-23 11:09:00,30.2,20.3,28.45,NNW,328,10.7,-999.0,66,0.00,,,-99.99,,2013-11-23 20:09:00,
2013-11-23 11:14:00,30.5,19.9,28.45,NNW,329,8.8,-999.0,64,0.00,,,-99.99,,2013-11-23 20:14:00,
2013-11-23 11:19:00,31.0,20.3,28.45,WNW,302,8.2,-999.0,63,0.00,,,-99.99,,2013-11-23 20:19:00,
2013-11-23 11:24:00,30.4,20.5,28.47,WNW,288,8.1,-999.0,66,0.00,,,-99.99,,2013-11-23 20:24:00,
2013-11-23 11:29:00,30.8,21.6,28.48,North,7,0.2,-999.0,68,0.00,,,-99.99,,2013-11-23 20:29:00,
2013-11-23 11:34:00,30.6,20.7,28.47,WNW,286,5.4,-999.0,66,0.00,,,-99.99,,2013-11-23 20:34:00,
2013-11-23 11:39:00,30.2,20.7,28.47,NW,320,11.0,-999.0,67,0.00,,,-99.99,,2013-11-23 20:39:00,
2013-11-23 11:44:00,29.8,20.9,28.48,WNW,299,9.4,-999.0,69,0.00,,,-99.99,,2013-11-23 20:44:00,
2013-11-23 11:49:00,30.0,21.4,28.48,NW,316,12.9,-999.0,70,0.00,,,-99.99,,2013-11-23 20:49:00,
2013-11-23 11:54:00,30.4,20.9,28.48,WNW,297,10.4,-999.0,67,0.00,,,-99.99,,2013-11-23 20:54:00,
2013-11-23 11:59:00,30.4,22.1,28.48,WNW,298,8.9,-999.0,70,0.00,,,-99.99,,2013-11-23 20:59:00,
2013-11-23 12:04:00,30.2,22.2,28.46,NW,307,12.8,-999.0,71,0.00,,,-99.99,,2013-11-23 21:04:00,
2013-11-23 12:09:00,30.6,22.7,28.47,NW,308,12.5,-999.0,72,0.00,,,-99.99,,2013-11-23 21:09:00,
2013-11-23 12:14:00,30.9,22.6,28.47,NNW,341,10.4,-999.0,70,0.00,,,-99.99,,2013-11-23 21:14:00,
2013-11-23 12:19:00,30.5,22.2,28.48,NW,322,13.1,-999.0,70,0.00,,,-99.99,,2013-11-23 21:19:00,
2013-11-23 12:24:00,30.5,23.1,28.48,NW,304,11.0,-999.0,73,0.00,,,-99.99,,2013-11-23 21:24:00,
2013-11-23 12:29:00,30.9,23.3,28.48,West,259,10.2,-999.0,72,0.00,,,-99.99,,2013-11-23 21:29:00,
2013-11-23 12:34:00,30.7,23.0,28.48,NW,323,13.8,-999.0,73,0.00,,,-99.99,,2013-11-23 21:34:00,
2013-11-23 12:39:00,30.9,23.6,28.47,NW,311,15.6,-999.0,74,0.00,,,-99.99,,2013-11-23 21:39:00,
2013-11-23 12:44:00,31.0,23.5,28.47,NNW,344,13.6,-999.0,73,0.00,,,-99.99,,2013-11-23 21:44:00,
2013-11-23 12:49:00,31.5,23.6,28.48,NW,321,16.1,-999.0,72,0.00,,,-99.99,,2013-11-23 21:49:00,
2013-11-23 12:54:00,30.8,23.5,28.48,NW,326,14.4,-999.0,74,0.00,,,-99.99,,2013-11-23 21:54:00,
2013-11-23 12:59:00,31.0,24.1,28.49,NW,316,18.1,-999.0,75,0.00,,,-99.99,,2013-11-23 21:59:00,
2013-11-23 13:04:00,31.0,24.0,28.49,NW,324,17.1,-999.0,75,0.00,,,-99.99,,2013-11-23 22:04:00,
2013-11-23 13:09:00,31.1,24.5,28.48,NW,306,17.9,-999.0,76,0.00,,,-99.99,,2013-11-23 22:09:00,
2013-11-23 13:14:00,31.2,24.4,28.50,WSW,254,6.4,-999.0,75,0.00,,,-99.99,,2013-11-23 22:14:00,
2013-11-23 13:19:00,31.3,24.6,28.50,WNW,291,7.9,-999.0,75,0.00,,,-99.99,,2013-11-23 22:19:00,
2013-11-23 13:24:00,31.3,24.6,28.50,WNW,292,13.9,-999.0,76,0.00,,,-99.99,,2013-11-23 22:24:00,
2013-11-23 13:29:00,31.4,24.4,28.49,NW,326,14.9,-999.0,74,0.00,,,-99.99,,2013-11-23 22:29:00,
2013-11-23 13:34:00,31.6,24.9,28.50,WNW,295,5.3,-999.0,75,0.00,,,-99.99,,2013-11-23 22:34:00,
2013-11-23 13:39:00,31.7,24.9,28.50,WNW,303,14.0,-999.0,75,0.00,,,-99.99,,2013-11-23 22:39:00,
2013-11-23 13:44:00,31.8,25.2,28.51,WNW,298,13.2,-999.0,76,0.00,,,-99.99,,2013-11-23 22:44:00,
2013-11-23 13:49:00,31.9,25.4,28.50,WNW,288,13.5,-999.0,76,0.00,,,-99.99,,2013-11-23 22:49:00,
2013-11-23 13:54:00,31.9,24.8,28.50,WNW,290,13.3,-999.0,74,0.00,,,-99.99,,2013-11-23 22:54:00,
2013-11-23 13:59:00,32.0,25.6,28.50,WNW,296,14.2,-999.0,76,0.00,,,-99.99,,2013-11-23 22:59:00,
2013-11-23 14:04:00,32.1,25.5,28.50,WNW,290,7.4,-999.0,76,0.00,,,-99.99,,2013-11-23 23:04:00,
2013-11-23 14:09:00,32.0,25.7,28.50,NNW,327,15.3,-999.0,77,0.00,,,-99.99,,2013-11-23 23:09:00,
2013-11-23 14:12:00,31.9,26.1,28.51,WNW,301,15.2,-999.0,78,0.00,,,-99.99,,2013-11-23 23:12:00,
2013-11-23 14:17:00,31.6,26.1,28.51,NW,314,13.4,-999.0,79,0.00,,,-99.99,,2013-11-23 23:17:00,
2013-11-23 14:22:00,31.6,25.3,28.50,NNW,327,13.5,-999.0,77,0.00,,,-99.99,,2013-11-23 23:22:00,
2013-11-23 14:27:00,31.3,24.8,28.50,NW,320,13.3,-999.0,76,0.00,,,-99.99,,2013-11-23 23:27:00,
2013-11-23 14:32:00,30.9,25.5,28.50,NW,317,14.6,-999.0,80,0.00,,,-99.99,,2013-11-23 23:32:00,
2013-11-23 14:37:00,31.1,25.5,28.51,NW,313,15.2,-999.0,79,0.00,,,-99.99,,2013-11-23 23:37:00,
2013-11-23 14:42:00,31.5,25.4,28.51,NW,319,17.0,-999.0,77,0.00,,,-99.99,,2013-11-23 23:42:00,
2013-11-23 14:47:00,31.6,25.0,28.51,NW,321,16.3,-999.0,76,0.00,,,-99.99,,2013-11-23 23:47:00,
2013-11-23 14:52:00,31.5,25.2,28.51,NW,317,15.0,-999.0,77,0.00,,,-99.99,,2013-11-23 23:52:00,
2013-11-23 14:57:00,31.0,24.8,28.51,NW,316,13.8,-999.0,77,0.00,,,-99.99,,2013-11-23 23:57:00,
2013-11-23 15:02:00,31.0,24.5,28.51,NW,316,15.3,-999.0,76,0.00,,,-99.99,,2013-11-24 00:02:00,
2013-11-23 15:07:00,31.2,24.0,28.51,NW,325,19.5,-999.0,74,0.00,,,-99.99,,2013-11-24 00:07:00,
2013-11-23 15:12:00,31.0,24.0,28.51,NW,314,17.5,-999.0,75,0.00,,,-99.99,,2013-11-24 00:12:00,
2013-11-23 15:17:00,30.8,23.9,28.51,NW,316,16.3,-999.0,75,0.00,,,-99.99,,2013-11-24 00:17:00,
2013-11-23 15:22:00,30.7,24.9,28.51,NW,312,16.6,-999.0,78,0.00,,,-99.99,,2013-11-24 00:22:00,
2013-11-23 15:27:00,30.7,24.9,28.51,NW,313,16.5,-999.0,78,0.00,,,-99.99,,2013-11-24 00:27:00,
2013-11-23 15:32:00,30.9,24.9,28.52,NW,309,13.4,-999.0,77,0.00,,,-99.99,,2013-11-24 00:32:00,
2013-11-23 15:37:00,31.0,24.7,28.53,NW,322,11.4,-999.0,77,0.00,,,-99.99,,2013-11-24 00:37:00,
2013-11-23 15:42:00,30.8,24.8,28.53,NW,315,12.3,-999.0,78,0.00,,,-99.99,,2013-11-24 00:42:00,
2013-11-23 15:47:00,30.7,24.6,28.53,NW,316,13.2,-999.0,77,0.00,,,-99.99,,2013-11-24 00:47:00,
2013-11-23 15:52:00,30.7,24.1,28.52,NW,310,14.0,-999.0,76,0.00,,,-99.99,,2013-11-24 00:52:00,
2013-11-23 15:57:00,30.9,23.9,28.52,NW,316,13.6,-999.0,75,0.00,,,-99.99,,2013-11-24 00:57:00,
2013-11-23 16:02:00,30.8,23.9,28.55,NW,314,11.4,-999.0,75,0.00,,,-99.99,,2013-11-24 01:02:00,
2013-11-23 16:07:00,30.7,24.2,28.53,NW,306,11.2,-999.0,76,0.00,,,-99.99,,2013-11-24 01:07:00,
2013-11-23 16:12:00,30.4,24.1,28.53,NW,323,8.6,-999.0,77,0.00,,,-99.99,,2013-11-24 01:12:00,
2013-11-23 16:17:00,30.4,24.6,28.52,WNW,302,8.0,-999.0,78,0.00,,,-99.99,,2013-11-24 01:17:00,
2013-11-23 16:22:00,30.3,24.4,28.52,WNW,288,10.0,-999.0,78,0.00,,,-99.99,,2013-11-24 01:22:00,
2013-11-23 16:27:00,30.7,24.9,28.52,WNW,303,13.5,-999.0,78,0.00,,,-99.99,,2013-11-24 01:27:00,
2013-11-23 16:32:00,30.6,24.7,28.53,NW,312,12.1,-999.0,78,0.00,,,-99.99,,2013-11-24 01:32:00,
2013-11-23 16:37:00,30.8,24.8,28.53,WNW,295,13.3,-999.0,78,0.00,,,-99.99,,2013-11-24 01:37:00,
2013-11-23 16:42:00,31.0,25.1,28.53,NW,309,15.6,-999.0,78,0.00,,,-99.99,,2013-11-24 01:42:00,
2013-11-23 16:47:00,31.0,25.5,28.53,NW,307,16.7,-999.0,79,0.00,,,-99.99,,2013-11-24 01:47:00,
2013-11-23 16:52:00,30.9,26.2,28.53,WNW,294,17.4,-999.0,82,0.00,,,-99.99,,2013-11-24 01:52:00,
2013-11-23 16:57:00,31.0,26.5,28.53,WNW,299,17.8,-999.0,82,0.00,,,-99.99,,2013-11-24 01:57:00,
2013-11-23 17:02:00,31.0,26.7,28.56,WNW,302,19.3,-999.0,83,0.00,,,-99.99,,2013-11-24 02:02:00,
2013-11-23 17:07:00,30.8,26.6,28.54,NW,311,14.1,-999.0,84,0.00,,,-99.99,,2013-11-24 02:07:00,
2013-11-23 17:12:00,31.0,27.1,28.53,WNW,303,17.4,-999.0,85,0.00,,,-99.99,,2013-11-24 02:12:00,
2013-11-23 17:17:00,31.4,27.5,28.53,NW,305,17.5,-999.0,85,0.00,,,-99.99,,2013-11-24 02:17:00,
2013-11-23 17:22:00,31.2,27.7,28.53,NW,305,16.7,-999.0,86,0.00,,,-99.99,,2013-11-24 02:22:00,
2013-11-23 17:27:00,31.4,27.9,28.55,NW,318,20.7,-999.0,86,0.00,,,-99.99,,2013-11-24 02:27:00,
2013-11-23 17:32:00,31.3,27.8,28.55,NW,312,20.8,-999.0,86,0.00,,,-99.99,,2013-11-24 02:32:00,
2013-11-23 17:37:00,30.8,27.8,28.55,WNW,282,13.0,-999.0,88,0.00,,,-99.99,,2013-11-24 02:37:00,
2013-11-23 17:42:00,30.9,27.8,28.54,NW,325,14.2,-999.0,88,0.00,,,-99.99,,2013-11-24 02:42:00,
2013-11-23 17:47:00,31.1,27.0,28.55,NW,311,14.6,-999.0,84,0.00,,,-99.99,,2013-11-24 02:47:00,
2013-11-23 17:52:00,31.0,27.1,28.55,WNW,292,12.2,-999.0,85,0.00,,,-99.99,,2013-11-24 02:52:00,
2013-11-23 17:57:00,30.8,27.2,28.55,NW,306,14.6,-999.0,86,0.00,,,-99.99,,2013-11-24 02:57:00,
2013-11-23 18:02:00,30.9,26.9,28.56,NW,312,14.5,-999.0,85,0.00,,,-99.99,,2013-11-24 03:02:00,
2013-11-23 18:07:00,31.4,26.6,28.55,NW,319,14.3,-999.0,82,0.00,,,-99.99,,2013-11-24 03:07:00,
2013-11-23 18:12:00,31.3,26.4,28.54,NW,309,15.3,-999.0,81,0.00,,,-99.99,,2013-11-24 03:12:00,
2013-11-23 18:17:00,31.3,26.4,28.54,NW,318,14.2,-999.0,81,0.00,,,-99.99,,2013-11-24 03:17:00,
2013-11-23 18:22:00,31.3,26.2,28.54,NW,323,11.7,-999.0,81,0.00,,,-99.99,,2013-11-24 03:22:00,
2013-11-23 18:27:00,31.0,26.2,28.56,NW,321,13.6,-999.0,82,0.00,,,-99.99,,2013-11-24 03:27:00,
2013-11-23 18:32:00,30.5,25.8,28.56,NW,305,12.1,-999.0,82,0.00,,,-99.99,,2013-11-24 03:32:00,
2013-11-23 18:37:00,30.2,25.8,28.55,NW,312,12.1,-999.0,83,0.00,,,-99.99,,2013-11-24 03:37:00,
2013-11-23 18:42:00,30.0,26.1,28.55,WNW,296,12.4,-999.0,85,0.00,,,-99.99,,2013-11-24 03:42:00,
2013-11-23 18:47:00,30.2,27.3,28.55,NW,312,13.7,-999.0,88,0.00,,,-99.99,,2013-11-24 03:47:00,
2013-11-23 18:52:00,30.2,28.0,28.58,NW,312,13.3,-999.0,91,0.00,,,-99.99,,2013-11-24 03:52:00,
2013-11-23 18:57:00,30.2,28.6,28.56,NW,308,15.3,-999.0,93,0.00,,,-99.99,,2013-11-24 03:57:00,
2013-11-23 19:02:00,30.4,28.8,28.57,NW,308,14.2,-999.0,93,0.00,,,-99.99,,2013-11-24 04:02:00,
2013-11-23 19:07:00,30.3,28.7,28.55,NW,310,15.6,-999.0,93,0.00,,,-99.99,,2013-11-24 04:07:00,
2013-11-23 19:12:00,30.2,28.5,28.56,WNW,301,16.8,-999.0,93,0.00,,,-99.99,,2013-11-24 04:12:00,
2013-11-23 19:17:00,30.4,28.4,28.56,NW,317,15.2,-999.0,92,0.00,,,-99.99,,2013-11-24 04:17:00,
2013-11-23 19:22:00,30.5,28.6,28.56,NW,311,13.9,-999.0,92,0.00,,,-99.99,,2013-11-24 04:22:00,
2013-11-23 19:27:00,30.5,28.2,28.56,NW,306,16.0,-999.0,91,0.00,,,-99.99,,2013-11-24 04:27:00,
2013-11-23 19:32:00,30.0,28.0,28.56,SW,228,8.3,-999.0,92,0.00,,,-99.99,,2013-11-24 04:32:00,
2013-11-23 19:37:00,30.5,28.4,28.56,NW,307,13.6,-999.0,91,0.00,,,-99.99,,2013-11-24 04:37:00,
2013-11-23 19:42:00,30.6,28.5,28.56,WNW,302,5.4,-999.0,91,0.00,,,-99.99,,2013-11-24 04:42:00,
2013-11-23 19:47:00,30.4,28.5,28.56,West,269,0.8,-999.0,92,0.00,,,-99.99,,2013-11-24 04:47:00,
2013-11-23 19:52:00,30.0,28.3,28.57,NW,307,0.6,-999.0,93,0.00,,,-99.99,,2013-11-24 04:52:00,
2013-11-23 19:57:00,30.4,28.8,28.57,West,259,2.8,-999.0,93,0.00,,,-99.99,,2013-11-24 04:57:00,
2013-11-23 20:01:00,30.2,28.6,28.58,West,281,9.4,-999.0,93,0.00,,,-99.99,,2013-11-24 05:01:00,
2013-11-23 20:02:00,30.4,28.7,28.58,WNW,290,13.7,-999.0,93,0.00,,,-99.99,,2013-11-24 05:02:00,
2013-11-23 20:03:00,30.4,28.6,28.58,WNW,295,14.2,-999.0,93,0.00,,,-99.99,,2013-11-24 05:03:00,
2013-11-23 20:05:00,30.4,28.7,28.56,NW,305,14.1,-999.0,93,0.00,,,-99.99,,2013-11-24 05:05:00,
2013-11-23 20:10:00,30.3,28.7,28.56,South,173,1.1,-999.0,93,0.00,,,-99.99,,2013-11-24 05:10:00,
2013-11-23 20:13:00,30.4,28.8,28.56,WNW,294,10.6,-999.0,93,0.00,,,-99.99,,2013-11-24 05:13:00,
2013-11-23 20:16:00,30.8,29.6,28.57,West,264,12.4,-999.0,95,0.00,,,-99.99,,2013-11-24 05:16:00,
2013-11-23 20:21:00,30.7,29.6,28.57,ENE,58,1.2,-999.0,95,0.00,,,-99.99,,2013-11-24 05:21:00,
2013-11-23 20:26:00,30.9,30.0,28.57,WNW,285,9.6,-999.0,96,0.00,,,-99.99,,2013-11-24 05:26:00,
2013-11-23 20:31:00,30.8,30.1,28.56,WSW,247,8.1,-999.0,97,0.00,,,-99.99,,2013-11-24 05:31:00,
2013-11-23 20:36:00,30.8,30.3,28.56,East,83,2.7,-999.0,97,0.00,,,-99.99,,2013-11-24 05:36:00,
2013-11-23 20:41:00,31.0,30.6,28.56,NW,304,5.6,-999.0,98,0.00,,,-99.99,,2013-11-24 05:41:00,
2013-11-23 20:46:00,31.4,31.1,28.58,ESE,122,0.9,-999.0,98,0.00,,,-99.99,,2013-11-24 05:46:00,
2013-11-23 20:51:00,31.5,31.2,28.57,NW,306,5.1,-999.0,98,0.00,,,-99.99,,2013-11-24 05:51:00,
2013-11-23 20:56:00,31.6,31.4,28.57,WNW,301,16.6,-999.0,98,0.00,,,-99.99,,2013-11-24 05:56:00,
2013-11-23 20:57:00,31.6,31.3,28.57,WNW,284,7.5,-999.0,99,0.00,,,-99.99,,2013-11-24 05:57:00,
2013-11-23 21:02:00,31.6,31.4,28.58,South,177,1.5,-999.0,98,0.00,,,-99.99,,2013-11-24 06:02:00,
2013-11-23 21:07:00,31.8,31.5,28.59,SSE,151,4.0,-999.0,99,0.00,,,-99.99,,2013-11-24 06:07:00,
2013-11-23 21:12:00,31.6,31.4,28.59,ESE,105,0.8,-999.0,99,0.00,,,-99.99,,2013-11-24 06:12:00,
2013-11-23 21:17:00,31.6,31.4,28.58,North,350,1.5,-999.0,99,0.00,,,-99.99,,2013-11-24 06:17:00,
2013-11-23 21:22:00,31.6,31.4,28.58,NNE,32,2.2,-999.0,99,0.00,,,-99.99,,2013-11-24 06:22:00,
2013-11-23 21:27:00,31.8,31.6,28.59,SSE,154,0.7,-999.0,99,0.00,,,-99.99,,2013-11-24 06:27:00,
2013-11-23 21:32:00,31.9,31.8,28.58,ESE,105,0.5,-999.0,99,0.00,,,-99.99,,2013-11-24 06:32:00,
2013-11-23 21:37:00,31.8,31.7,28.58,SE,127,2.6,-999.0,99,0.00,,,-99.99,,2013-11-24 06:37:00,
2013-11-23 21:42:00,32.0,31.9,28.60,West,273,2.3,-999.0,99,0.00,,,-99.99,,2013-11-24 06:42:00,
2013-11-23 21:47:00,32.2,32.0,28.60,ENE,73,2.2,-999.0,99,0.00,,,-99.99,,2013-11-24 06:47:00,
2013-11-23 21:52:00,32.1,32.0,28.59,NNW,340,5.8,-999.0,99,0.00,,,-99.99,,2013-11-24 06:52:00,
2013-11-23 21:57:00,32.2,32.1,28.59,WNW,294,2.6,-999.0,99,0.00,,,-99.99,,2013-11-24 06:57:00,
2013-11-23 22:02:00,32.2,32.1,28.58,NW,308,1.1,-999.0,99,0.00,,,-99.99,,2013-11-24 07:02:00,
2013-11-23 22:07:00,32.5,32.4,28.58,West,267,1.0,-999.0,99,0.00,,,-99.99,,2013-11-24 07:07:00,
2013-11-23 22:12:00,32.4,32.3,28.58,West,265,5.3,-999.0,99,0.00,,,-99.99,,2013-11-24 07:12:00,
2013-11-23 22:17:00,32.4,32.3,28.57,WSW,245,12.7,-999.0,99,0.00,,,-99.99,,2013-11-24 07:17:00,
2013-11-23 22:22:00,32.4,32.3,28.60,NE,41,3.2,-999.0,99,0.00,,,-99.99,,2013-11-24 07:22:00,
2013-11-23 22:27:00,32.5,32.4,28.57,West,273,1.9,-999.0,99,0.00,,,-99.99,,2013-11-24 07:27:00,
2013-11-23 22:32:00,32.5,32.4,28.60,ESE,123,2.8,-999.0,99,0.00,,,-99.99,,2013-11-24 07:32:00,
2013-11-23 22:37:00,32.7,32.6,28.57,NNE,12,1.7,-999.0,99,0.00,,,-99.99,,2013-11-24 07:37:00,
2013-11-23 22:42:00,32.9,32.8,28.58,ESE,107,1.9,-999.0,99,0.00,,,-99.99,,2013-11-24 07:42:00,
2013-11-23 22:47:00,32.8,32.7,28.58,SW,229,3.2,-999.0,99,0.00,,,-99.99,,2013-11-24 07:47:00,
2013-11-23 22:52:00,32.8,32.7,28.60,North,8,0.8,-999.0,99,0.00,,,-99.99,,2013-11-24 07:52:00,
2013-11-23 22:57:00,32.9,32.8,28.59,WNW,285,17.0,-999.0,99,0.00,,,-99.99,,2013-11-24 07:57:00,
2013-11-23 23:02:00,32.6,32.5,28.60,NW,316,6.8,-999.0,99,0.00,,,-99.99,,2013-11-24 08:02:00,
2013-11-23 23:07:00,32.7,32.6,28.58,NNW,337,0.9,-999.0,99,0.00,,,-99.99,,2013-11-24 08:07:00,
2013-11-23 23:12:00,32.8,32.8,28.58,ESE,119,0.8,-999.0,99,0.00,,,-99.99,,2013-11-24 08:12:00,
2013-11-23 23:17:00,33.2,33.0,28.59,NE,53,3.4,-999.0,99,0.00,,,-99.99,,2013-11-24 08:17:00,
2013-11-23 23:22:00,33.2,33.0,28.59,ESE,109,3.1,-999.0,99,0.00,,,-99.99,,2013-11-24 08:22:00,
2013-11-23 23:27:00,33.3,33.2,28.57,SSE,149,1.7,-999.0,99,0.00,,,-99.99,,2013-11-24 08:27:00,
2013-11-23 23:32:00,33.3,33.2,28.59,ESE,114,4.7,-999.0,99,0.00,,,-99.99,,2013-11-24 08:32:00,
2013-11-23 23:37:00,33.2,33.1,28.58,West,263,9.6,-999.0,99,0.00,,,-99.99,,2013-11-24 08:37:00,
2013-11-23 23:42:00,33.3,33.2,28.60,SE,143,6.9,-999.0,99,0.00,,,-99.99,,2013-11-24 08:42:00,
2013-11-23 23:47:00,32.8,32.8,28.59,WNW,296,25.6,-999.0,99,0.00,,,-99.99,,2013-11-24 08:47:00,
2013-11-23 23:52:00,32.7,32.7,28.56,West,275,5.9,-999.0,99,0.00,,,-99.99,,2013-11-24 08:52:00,
2013-11-23 23:57:00,32.8,32.7,28.58,SSW,194,7.2,-999.0,99,0.00,,,-99.99,,2013-11-24 08:57:00,